Home > Weather > Chandigarh > Past weeks

Flag for India Weather for the Past 2 Weeks in Chandigarh, Chandigarh, India

Now
95 °F

Duststorm.


Feels Like: 91 °F
Forecast: 75 / 109 °F
Wind: 5 mph from West

Location: Amritsar Airport

Current Time: May 1, 2016 at 8:02:57 PM

Latest Report: May 1, 2016 at 7:30 PM


Visibility: 2 mi

Pressure: 29.56 "Hg

Humidity: 18%

Dew Point: 45 °F

Location of ChandigarhLocation

Historic Weather in Chandigarh — Graph

°F

Chandigarh Temperature Yesterday

Maximum temperature yesterday: 106 °F (at 4:00 PM)
Minimum temperature yesterday: 64 °F (at 6:00 AM)
Average temperature yesterday: 88 °F

High & Low Weather Summary for the Past Weeks

 TemperatureHumidityPressure
High108 °F (May 1, 3:30 PM)83% (Apr 18, 6:30 AM)29.86 "Hg (Apr 18, 6:30 AM)
Low61 °F (Apr 23, 5:30 AM)7% (Apr 29, 4:30 PM)29.53 "Hg (Apr 17, 1:00 AM)
Average84 °F32%29.72 "Hg
* Reported Apr 16 6:30 PM — May 1 6:30 PM, Chandigarh, Weather by CustomWeather, © 2016

Note: Actual official high and low records may vary slightly from our data, if they occured in-between our weather recording intervals... More about our weather records

Advertising

Chandigarh Weather History for the Previous 24 Hours

Scroll right to see more
 ConditionsComfort  
Time TempWeatherWind HumidityBarometerVisibility
6:30 PM
Sun, May 1
100 °FDuststorm.6 mph14%29.56 "Hg3 mi
6:00 PM104 °FDuststorm.8 mph11%29.56 "Hg3 mi
5:30 PM106 °FDuststorm.10 mph9%29.56 "Hg3 mi
5:00 PM106 °FDuststorm.13 mph9%29.56 "Hg3 mi
4:30 PM106 °FClear.13 mph9%29.56 "Hg4 mi
4:00 PM106 °FClear.13 mph9%29.59 "Hg4 mi
3:30 PM108 °FClear.13 mph10%29.59 "Hg4 mi
3:00 PM106 °FClear.10 mph11%29.59 "Hg4 mi
2:30 PM106 °FClear.8 mph11%29.62 "Hg4 mi
1:30 PM106 °FClear.8 mph11%29.62 "Hg4 mi
12:30 PM106 °FClear.6 mph13%29.65 "Hg4 mi
12:00 PM104 °FClear.7 mph13%29.65 "Hg4 mi
11:30 AM102 °FClear.2 mph14%29.65 "Hg4 mi
10:30 AM99 °FClear.5 mph16%29.68 "Hg3 mi
10:00 AM97 °FClear.2 mph18%29.68 "Hg2 mi
9:30 AM93 °FClear.2 mph21%29.68 "Hg2 mi
8:30 AM86 °FClear.No wind33%29.68 "Hg1 mi
8:00 AM84 °FClear.No wind33%29.68 "Hg1 mi
7:30 AM81 °FClear.2 mph42%29.65 "Hg1 mi
7:00 AM75 °FHaze.No wind50%29.65 "Hg1 mi
6:30 AM72 °FHaze.No wind53%29.65 "Hg1 mi
6:00 AM73 °FDuststorm.2 mph50%29.65 "Hg2 mi
5:30 AM70 °FDuststorm.No wind57%29.65 "Hg2 mi
5:00 AM72 °FDuststorm.No wind53%29.65 "Hg2 mi
4:30 AM73 °FDuststorm.No wind50%29.65 "Hg2 mi
4:00 AM73 °FDuststorm.No wind47%29.65 "Hg2 mi
3:30 AM75 °FDuststorm.No wind41%29.65 "Hg2 mi
3:00 AM75 °FDuststorm.No wind41%29.65 "Hg2 mi
2:30 AM75 °FDuststorm.No wind44%29.65 "Hg2 mi
2:00 AM77 °FDuststorm.No wind39%29.65 "Hg2 mi
1:30 AM77 °FDuststorm.No wind42%29.65 "Hg2 mi
1:00 AM77 °FDuststorm.No wind42%29.65 "Hg2 mi
12:30 AM77 °FDuststorm.No wind39%29.68 "Hg2 mi
12:00 AM79 °FDuststorm.No wind37%29.68 "Hg2 mi
11:30 PM
Sat, Apr 30
81 °FDuststorm.No wind34%29.68 "Hg2 mi
11:00 PM81 °FDuststorm.No wind34%29.68 "Hg2 mi
10:30 PM82 °FDuststorm.No wind32%29.68 "Hg2 mi
10:00 PM82 °FDuststorm.No wind30%29.68 "Hg2 mi
9:30 PM82 °FDuststorm.No wind30%29.68 "Hg2 mi
9:00 PM84 °FDuststorm.No wind29%29.68 "Hg2 mi
8:30 PM86 °FDuststorm.No wind27%29.65 "Hg4 mi
8:00 PM90 °FDuststorm.No wind21%29.65 "Hg4 mi
Weather by CustomWeather, © 2016

See weather overviewHow to use our weather pages